| time (UTC) | temp F | wind direction | speed knots | gust knots | rain 1hr in | rain 24hr in | rain mn in | humidity % | barometer mb |
| 20260504060126 | 51 | 262 | 1.7 | 1.7 | 0.00 | 0.00 | 0.00 | 49 | 1017.4 |
| 20260504050554 | 49 | 173 | 0.0 | 0.0 | 0.00 | 0.00 | 0.00 | 57 | 1017.4 |
| 20260504045548 | 47 | 90 | 0.0 | 0.9 | 0.00 | 0.00 | 0.00 | 65 | 1017.6 |
| 20260504045043 | 46 | 90 | 0.0 | 0.0 | 0.00 | 0.00 | 0.00 | 70 | 1017.2 |
| 20260504044540 | 46 | 90 | 0.0 | 0.0 | 0.00 | 0.00 | 0.00 | 69 | 1017.1 |
| 20260504044037 | 46 | 90 | 0.0 | 0.0 | 0.00 | 0.00 | 0.00 | 69 | 1017.1 |
| 20260504043534 | 46 | 90 | 0.0 | 0.0 | 0.00 | 0.00 | 0.00 | 69 | 1017.2 |
| 20260504043032 | 46 | 90 | 0.0 | 0.0 | 0.00 | 0.00 | 0.00 | 68 | 1017.0 |
| 20260504042529 | 46 | 90 | 0.0 | 0.0 | 0.00 | 0.00 | 0.00 | 68 | 1016.7 |
| 20260504042026 | 46 | 90 | 0.0 | 0.0 | 0.00 | 0.00 | 0.00 | 68 | 1016.6 |
| 20260504041521 | 45 | 90 | 0.0 | 0.0 | 0.00 | 0.00 | 0.00 | 67 | 1017.0 |
| 20260504041017 | 45 | 90 | 0.0 | 0.0 | 0.00 | 0.00 | 0.00 | 68 | 1016.9 |
| 20260504040515 | 45 | 90 | 0.0 | 0.0 | 0.00 | 0.00 | 0.00 | 69 | 1017.0 |
| 20260504040012 | 45 | 90 | 0.0 | 0.0 | 0.00 | 0.00 | 0.00 | 69 | 1017.2 |
| 20260504035509 | 45 | 90 | 0.0 | 0.0 | 0.00 | 0.00 | 0.00 | 68 | 1017.1 |
| 20260504035005 | 45 | 90 | 0.0 | 0.0 | 0.00 | 0.00 | 0.00 | 71 | 1017.2 |
| 20260504034503 | 44 | 90 | 0.0 | 0.0 | 0.00 | 0.00 | 0.00 | 69 | 1017.2 |
| 20260504034000 | 44 | 90 | 0.0 | 0.0 | 0.00 | 0.00 | 0.00 | 68 | 1017.2 |
| 20260504033457 | 44 | 90 | 0.0 | 0.0 | 0.00 | 0.00 | 0.00 | 68 | 1017.1 |
| 20260504032955 | 44 | 90 | 0.0 | 0.0 | 0.00 | 0.00 | 0.00 | 67 | 1017.1 |
| 20260504032451 | 44 | 90 | 0.0 | 0.0 | 0.00 | 0.00 | 0.00 | 67 | 1017.0 |
| 20260504031948 | 45 | 90 | 0.0 | 0.0 | 0.00 | 0.00 | 0.00 | 67 | 1017.0 |
| 20260504031445 | 45 | 90 | 0.0 | 0.0 | 0.00 | 0.00 | 0.00 | 67 | 1017.2 |
| 20260504030941 | 45 | 90 | 0.0 | 0.0 | 0.00 | 0.00 | 0.00 | 65 | 1017.0 |
| 20260504030439 | 45 | 90 | 0.0 | 0.0 | 0.00 | 0.00 | 0.00 | 65 | 1017.0 |
| 20260504025934 | 45 | 90 | 0.0 | 0.0 | 0.00 | 0.00 | 0.00 | 66 | 1016.7 |
| 20260504025431 | 45 | 90 | 0.0 | 0.0 | 0.00 | 0.00 | 0.00 | 65 | 1017.0 |
| 20260504024929 | 45 | 90 | 0.0 | 0.0 | 0.00 | 0.00 | 0.00 | 65 | 1017.1 |
| 20260504024426 | 45 | 90 | 0.0 | 0.0 | 0.00 | 0.00 | 0.00 | 64 | 1017.2 |
| 20260504023922 | 46 | 90 | 0.0 | 0.0 | 0.00 | 0.00 | 0.00 | 62 | 1017.0 |
| 20260504023419 | 46 | 90 | 0.0 | 0.0 | 0.00 | 0.00 | 0.00 | 61 | 1017.1 |
| 20260504022915 | 46 | 90 | 0.0 | 0.0 | 0.00 | 0.00 | 0.00 | 62 | 1017.2 |
| 20260504022411 | 46 | 90 | 0.0 | 0.0 | 0.00 | 0.00 | 0.00 | 64 | 1017.1 |
| 20260504021908 | 46 | 90 | 0.0 | 0.0 | 0.00 | 0.00 | 0.00 | 64 | 1017.1 |
| 20260504021405 | 46 | 90 | 0.0 | 0.0 | 0.00 | 0.00 | 0.00 | 64 | 1016.9 |
| 20260504020903 | 47 | 90 | 0.0 | 0.0 | 0.00 | 0.00 | 0.00 | 64 | 1016.9 |
| 20260504020359 | 47 | 90 | 0.0 | 0.0 | 0.00 | 0.00 | 0.00 | 64 | 1016.9 |
| 20260504015855 | 47 | 90 | 0.0 | 0.0 | 0.00 | 0.00 | 0.00 | 63 | 1017.0 |
| 20260504015351 | 48 | 90 | 0.0 | 0.0 | 0.00 | 0.00 | 0.00 | 62 | 1016.6 |
| 20260504014847 | 48 | 90 | 0.0 | 0.0 | 0.00 | 0.00 | 0.00 | 62 | 1016.7 |
| 20260504014343 | 48 | 90 | 0.0 | 0.0 | 0.00 | 0.00 | 0.00 | 61 | 1016.7 |
| 20260504013841 | 49 | 90 | 0.0 | 0.0 | 0.00 | 0.00 | 0.00 | 60 | 1016.6 |
| 20260504013339 | 49 | 90 | 0.0 | 0.0 | 0.00 | 0.00 | 0.00 | 59 | 1016.3 |
| 20260504012835 | 49 | 90 | 0.0 | 0.0 | 0.00 | 0.00 | 0.00 | 57 | 1016.3 |
| 20260504012333 | 50 | 90 | 0.0 | 0.0 | 0.00 | 0.00 | 0.00 | 55 | 1016.1 |
| 20260504011831 | 50 | 90 | 0.0 | 0.0 | 0.00 | 0.00 | 0.00 | 56 | 1016.4 |
| 20260504011327 | 50 | 90 | 0.0 | 0.0 | 0.00 | 0.00 | 0.00 | 53 | 1016.1 |
| 20260504010823 | 51 | 90 | 0.0 | 0.0 | 0.00 | 0.00 | 0.00 | 55 | 1016.3 |
| 20260504010319 | 51 | 90 | 0.0 | 0.0 | 0.00 | 0.00 | 0.00 | 53 | 1016.2 |
| 20260504005815 | 52 | 90 | 0.0 | 0.0 | 0.00 | 0.00 | 0.00 | 50 | 1016.1 |
| 20260504005312 | 52 | 90 | 0.0 | 0.0 | 0.00 | 0.00 | 0.00 | 50 | 1015.9 |
| 20260504004810 | 53 | 90 | 0.0 | 0.0 | 0.00 | 0.00 | 0.00 | 49 | 1016.0 |
| 20260504004308 | 53 | 90 | 0.0 | 0.0 | 0.00 | 0.00 | 0.00 | 49 | 1016.0 |
| 20260504003803 | 53 | 90 | 0.0 | 0.0 | 0.00 | 0.00 | 0.00 | 47 | 1015.7 |
| 20260504003301 | 55 | 90 | 0.0 | 0.0 | 0.00 | 0.00 | 0.00 | 45 | 1015.8 |
| 20260504002757 | 55 | 90 | 0.0 | 0.0 | 0.00 | 0.00 | 0.00 | 45 | 1015.8 |
| 20260504002254 | 56 | 90 | 0.0 | 0.0 | 0.00 | 0.00 | 0.00 | 43 | 1015.9 |
| 20260504001752 | 57 | 90 | 0.0 | 0.0 | 0.00 | 0.00 | 0.00 | 39 | 1015.7 |
| 20260504001249 | 58 | 90 | 0.0 | 0.0 | 0.00 | 0.00 | 0.00 | 39 | 1015.8 |
| 20260504000746 | 59 | 90 | 0.0 | 0.0 | 0.00 | 0.00 | 0.00 | 37 | 1015.8 |
| 20260504000242 | 60 | 90 | 0.0 | 0.0 | 0.00 | 0.00 | 0.00 | 37 | 1015.8 |
| 20260503235741 | 61 | 89 | 0.0 | 0.0 | 0.00 | 0.00 | 0.00 | 30 | 1015.8 |
| 20260503235237 | 62 | 89 | 0.0 | 0.0 | 0.00 | 0.00 | 0.00 | 29 | 1015.7 |
| 20260503234735 | 62 | 90 | 0.0 | 0.0 | 0.00 | 0.00 | 0.00 | 27 | 1015.7 |
| 20260503234233 | 62 | 91 | 0.0 | 0.0 | 0.00 | 0.00 | 0.00 | 27 | 1015.5 |
| 20260503233730 | 62 | 91 | 0.0 | 0.0 | 0.00 | 0.00 | 0.00 | 24 | 1015.6 |
| 20260503233225 | 63 | 146 | 0.0 | 0.0 | 0.00 | 0.00 | 0.00 | 25 | 1015.6 |
| 20260503232723 | 63 | 235 | 0.9 | 1.7 | 0.00 | 0.00 | 0.00 | 25 | 1015.7 |
| 20260503232220 | 63 | 75 | 0.9 | 0.9 | 0.00 | 0.00 | 0.00 | 24 | 1015.5 |
| 20260503231718 | 63 | 215 | 1.7 | 1.7 | 0.00 | 0.00 | 0.00 | 22 | 1015.6 |
| 20260503231214 | 64 | 285 | 1.7 | 2.6 | 0.00 | 0.00 | 0.00 | 22 | 1015.7 |
| 20260503230711 | 64 | 286 | 2.6 | 2.6 | 0.00 | 0.00 | 0.00 | 22 | 1015.7 |
| 20260503230208 | 64 | 165 | 1.7 | 1.7 | 0.00 | 0.00 | 0.00 | 22 | 1015.4 |
| 20260503225705 | 64 | 265 | 0.9 | 0.9 | 0.00 | 0.00 | 0.00 | 21 | 1015.3 |
| 20260503225205 | 65 | 210 | 0.9 | 1.7 | 0.00 | 0.00 | 0.00 | 22 | 1015.3 |
| 20260503224703 | 65 | 57 | 1.7 | 1.7 | 0.00 | 0.00 | 0.00 | 21 | 1015.5 |
| 20260503224200 | 65 | 289 | 2.6 | 3.5 | 0.00 | 0.00 | 0.00 | 20 | 1015.5 |
| 20260503223658 | 66 | 19 | 4.3 | 6.1 | 0.00 | 0.00 | 0.00 | 20 | 1015.6 |
| 20260503223155 | 66 | 149 | 1.7 | 2.6 | 0.00 | 0.00 | 0.00 | 21 | 1015.5 |
| 20260503222652 | 66 | 317 | 2.6 | 2.6 | 0.00 | 0.00 | 0.00 | 21 | 1015.5 |
| 20260503222149 | 66 | 271 | 5.2 | 7.0 | 0.00 | 0.00 | 0.00 | 20 | 1015.7 |
| 20260503221648 | 67 | 353 | 3.5 | 6.1 | 0.00 | 0.00 | 0.00 | 20 | 1015.6 |
| 20260503221145 | 66 | 282 | 1.7 | 1.7 | 0.00 | 0.00 | 0.00 | 20 | 1015.6 |
| 20260503220641 | 66 | 299 | 2.6 | 7.0 | 0.00 | 0.00 | 0.00 | 22 | 1015.6 |
| 20260503220138 | 67 | 226 | 3.5 | 5.2 | 0.00 | 0.00 | 0.00 | 21 | 1015.8 |
| 20260503215635 | 67 | 163 | 2.6 | 3.5 | 0.00 | 0.00 | 0.00 | 19 | 1015.7 |
| 20260503215132 | 66 | 262 | 1.7 | 2.6 | 0.00 | 0.00 | 0.00 | 21 | 1015.8 |
| 20260503214630 | 67 | 253 | 5.2 | 7.0 | 0.00 | 0.00 | 0.00 | 20 | 1015.7 |
| 20260503214126 | 66 | 179 | 0.9 | 1.7 | 0.00 | 0.00 | 0.00 | 23 | 1015.9 |
| 20260503213626 | 66 | 173 | 1.7 | 2.6 | 0.00 | 0.00 | 0.00 | 21 | 1016.0 |
| 20260503213122 | 66 | 304 | 2.6 | 3.5 | 0.00 | 0.00 | 0.00 | 22 | 1015.9 |
| 20260503212619 | 66 | 210 | 1.7 | 2.6 | 0.00 | 0.00 | 0.00 | 22 | 1015.9 |
| 20260503212117 | 66 | 274 | 3.5 | 3.5 | 0.00 | 0.00 | 0.00 | 23 | 1015.8 |
| 20260503211614 | 66 | 180 | 5.2 | 7.0 | 0.00 | 0.00 | 0.00 | 20 | 1016.1 |
| 20260503211109 | 67 | 123 | 1.7 | 2.6 | 0.00 | 0.00 | 0.00 | 21 | 1015.8 |
| 20260503210606 | 66 | 204 | 1.7 | 2.6 | 0.00 | 0.00 | 0.00 | 23 | 1015.9 |
| 20260503205559 | 68 | 286 | 4.3 | 5.2 | 0.00 | 0.00 | 0.00 | 21 | 1016.1 |
| 20260503205055 | 66 | 228 | 0.0 | 0.9 | 0.00 | 0.00 | 0.00 | 21 | 1016.0 |
| 20260503204552 | 68 | 158 | 4.3 | 6.1 | 0.00 | 0.00 | 0.00 | 19 | 1016.3 |
| 20260503204049 | 67 | 310 | 0.9 | 0.9 | 0.00 | 0.00 | 0.00 | 24 | 1016.1 |
| 20260503203546 | 66 | 67 | 0.9 | 0.9 | 0.00 | 0.00 | 0.00 | 19 | 1016.3 |
| 20260503203043 | 65 | 170 | 1.7 | 1.7 | 0.00 | 0.00 | 0.00 | 20 | 1016.4 |
| 20260503202541 | 66 | 314 | 2.6 | 3.5 | 0.00 | 0.00 | 0.00 | 23 | 1016.3 |
| 20260503202039 | 66 | 191 | 1.7 | 1.7 | 0.00 | 0.00 | 0.00 | 21 | 1016.4 |
| 20260503201537 | 64 | 289 | 2.6 | 2.6 | 0.00 | 0.00 | 0.00 | 25 | 1016.5 |
| 20260503201034 | 65 | 250 | 5.2 | 7.0 | 0.00 | 0.00 | 0.00 | 22 | 1016.5 |
| 20260503200530 | 65 | 267 | 1.7 | 2.6 | 0.00 | 0.00 | 0.00 | 21 | 1016.6 |
| 20260503200027 | 65 | 182 | 4.3 | 6.1 | 0.00 | 0.00 | 0.00 | 23 | 1016.7 |
| 20260503195524 | 64 | 182 | 3.5 | 3.5 | 0.00 | 0.00 | 0.00 | 22 | 1016.7 |
| 20260503195021 | 65 | 281 | 2.6 | 2.6 | 0.00 | 0.00 | 0.00 | 23 | 1017.0 |
| 20260503194518 | 64 | 338 | 1.7 | 2.6 | 0.00 | 0.00 | 0.00 | 24 | 1017.2 |
| 20260503194018 | 63 | 323 | 1.7 | 1.7 | 0.00 | 0.00 | 0.00 | 24 | 1017.2 |
| 20260503193515 | 63 | 143 | 3.5 | 3.5 | 0.00 | 0.00 | 0.00 | 25 | 1017.2 |
| 20260503193010 | 64 | 304 | 2.6 | 3.5 | 0.00 | 0.00 | 0.00 | 23 | 1017.4 |
| 20260503192506 | 64 | 327 | 2.6 | 3.5 | 0.00 | 0.00 | 0.00 | 22 | 1017.4 |
| 20260503192001 | 64 | 336 | 3.5 | 5.2 | 0.00 | 0.00 | 0.00 | 22 | 1017.5 |
| 20260503191459 | 63 | 151 | 1.7 | 1.7 | 0.00 | 0.00 | 0.00 | 22 | 1017.5 |
| 20260503190955 | 64 | 197 | 2.6 | 2.6 | 0.00 | 0.00 | 0.00 | 24 | 1017.4 |
| 20260503190453 | 63 | 195 | 1.7 | 1.7 | 0.00 | 0.00 | 0.00 | 27 | 1017.4 |
| 20260503185950 | 64 | 269 | 4.3 | 5.2 | 0.00 | 0.00 | 0.00 | 24 | 1017.8 |
| 20260503185446 | 64 | 346 | 4.3 | 5.2 | 0.00 | 0.00 | 0.00 | 23 | 1017.9 |
| 20260503184946 | 64 | 46 | 0.9 | 1.7 | 0.00 | 0.00 | 0.00 | 21 | 1017.9 |
| 20260503184442 | 63 | 349 | 2.6 | 2.6 | 0.00 | 0.00 | 0.00 | 23 | 1018.2 |
| 20260503183938 | 62 | 103 | 0.0 | 0.9 | 0.00 | 0.00 | 0.00 | 23 | 1017.9 |
| 20260503183435 | 62 | 194 | 1.7 | 2.6 | 0.00 | 0.00 | 0.00 | 23 | 1018.0 |
| 20260503182932 | 63 | 274 | 1.7 | 2.6 | 0.00 | 0.00 | 0.00 | 25 | 1018.2 |
| 20260503182431 | 62 | 227 | 1.7 | 1.7 | 0.00 | 0.00 | 0.00 | 26 | 1018.2 |
| 20260503181928 | 63 | 265 | 3.5 | 5.2 | 0.00 | 0.00 | 0.00 | 26 | 1018.2 |
| 20260503181425 | 62 | 90 | 0.0 | 0.9 | 0.00 | 0.00 | 0.00 | 29 | 1018.4 |
| 20260503180921 | 61 | 108 | 0.0 | 0.9 | 0.00 | 0.00 | 0.00 | 30 | 1018.5 |
| 20260503180420 | 61 | 198 | 1.7 | 2.6 | 0.00 | 0.00 | 0.00 | 27 | 1018.5 |
| 20260503175916 | 61 | 286 | 3.5 | 5.2 | 0.00 | 0.00 | 0.00 | 25 | 1018.6 |
| 20260503175415 | 61 | 240 | 2.6 | 2.6 | 0.00 | 0.00 | 0.00 | 27 | 1018.6 |
| 20260503174909 | 60 | 315 | 4.3 | 6.1 | 0.00 | 0.00 | 0.00 | 27 | 1018.8 |
| 20260503174409 | 61 | 324 | 2.6 | 3.5 | 0.00 | 0.00 | 0.00 | 33 | 1018.7 |
| 20260503173908 | 61 | 343 | 3.5 | 3.5 | 0.00 | 0.00 | 0.00 | 27 | 1019.0 |
| 20260503173405 | 60 | 158 | 0.9 | 1.7 | 0.00 | 0.00 | 0.00 | 27 | 1019.1 |
| 20260503172902 | 60 | 333 | 3.5 | 6.1 | 0.00 | 0.00 | 0.00 | 29 | 1019.1 |
| 20260503172359 | 60 | 278 | 3.5 | 3.5 | 0.00 | 0.00 | 0.00 | 28 | 1019.1 |
| 20260503171855 | 59 | 110 | 1.7 | 1.7 | 0.00 | 0.00 | 0.00 | 26 | 1019.2 |
| 20260503171352 | 59 | 255 | 2.6 | 3.5 | 0.00 | 0.00 | 0.00 | 29 | 1019.3 |
| 20260503170850 | 59 | 195 | 1.7 | 1.7 | 0.00 | 0.00 | 0.00 | 31 | 1019.3 |
| 20260503170346 | 58 | 67 | 1.7 | 1.7 | 0.00 | 0.00 | 0.00 | 32 | 1019.3 |
| 20260503150738 | 53 | 275 | 2.6 | 5.2 | 0.00 | 0.00 | 0.00 | 35 | 1020.6 |
| 20260503150234 | 52 | 174 | 1.7 | 1.7 | 0.00 | 0.00 | 0.00 | 37 | 1020.6 |
| 20260503140159 | 50 | 281 | 2.6 | 3.5 | 0.00 | 0.00 | 0.00 | 41 | 1020.7 |
| 20260503131128 | 49 | 89 | 0.0 | 0.0 | 0.00 | 0.00 | 0.00 | 42 | 1020.7 |
| 20260503130626 | 48 | 357 | 3.5 | 3.5 | 0.00 | 0.00 | 0.00 | 41 | 1020.8 |
| 20260503130123 | 48 | 332 | 1.7 | 2.6 | 0.00 | 0.00 | 0.00 | 42 | 1020.5 |
| 20260503110516 | 37 | 134 | 0.0 | 0.0 | 0.00 | 0.00 | 0.00 | 80 | 1019.4 |
| 20260503090408 | 36 | 97 | 0.0 | 0.0 | 0.00 | 0.00 | 0.00 | 83 | 1017.3 |
| 20260503081335 | 36 | 97 | 0.0 | 0.0 | 0.00 | 0.00 | 0.00 | 86 | 1017.1 |
| 20260503080831 | 36 | 97 | 0.0 | 0.0 | 0.00 | 0.00 | 0.00 | 86 | 1017.3 |
| 20260503080329 | 36 | 97 | 0.0 | 0.0 | 0.00 | 0.00 | 0.00 | 86 | 1017.0 |
| 20260503072805 | 37 | 96 | 0.9 | 0.9 | 0.00 | 0.00 | 0.00 | 83 | 1016.6 |
| 20260503072305 | 37 | 96 | 0.0 | 0.0 | 0.00 | 0.00 | 0.00 | 83 | 1016.5 |
| 20260503071758 | 37 | 96 | 0.0 | 0.0 | 0.00 | 0.00 | 0.00 | 82 | 1016.7 |
| 20260503071255 | 37 | 96 | 0.0 | 0.0 | 0.00 | 0.00 | 0.00 | 84 | 1016.7 |
| 20260503070751 | 37 | 96 | 0.0 | 0.0 | 0.00 | 0.00 | 0.00 | 84 | 1016.7 |
| 20260503070250 | 37 | 96 | 0.0 | 0.0 | 0.00 | 0.00 | 0.00 | 84 | 1016.7 |